Weather Roundup
Issued by NWS

Home | Current Version | Previous Version | Graphics & Text | Print | Product List | Glossary Off
Versions: 1 2 3 4 5 6 7 8 9 10 11 12 13 14 15 16 17 18 19 20 21 22 23 24 25 26 27 28 29 30 31 32 33 34 35 36 37 38 39 40 41 42 43 44 45 46 47 48 49 50

000
NZUS93 KARX 280410
HRRWXR

CURRENT HOURLY OBSERVATIONS ACROSS
MUCH OF THE UPPER MISSISSIPPI VALLEY
NATIONAL WEATHER SERVICE LA CROSSE WI
1100 PM CDT WED MAY 27 2015


...SOUTHEAST MINNESOTA...


CITY           SKY/WX    TMP DP  RH WIND       PRES   REMARKS
ROCHESTER      CLEAR     66  59  78 S6        30.08R
ROCHESTER/MAYO FAIR      69  58  66 SE3       30.07R
WINONA         CLEAR     63  61  94 CALM      30.05R
AUSTIN         CLEAR     64  59  82 CALM      30.06S
ALBERT LEA     CLEAR     64  61  88 CALM      30.06R
DODGE CENTER   CLEAR     68  55  64 CALM      30.07R
PRESTON        CLEAR     65  56  73 S5        30.08R
OWATONNA       CLEAR     66  57  72 SE6       30.06R
FARIBAULT      CLEAR     63  57  82 CALM      30.05R
$$

...ELSEWHERE IN MINNESOTA...


CITY           SKY/WX    TMP DP  RH WIND       PRES   REMARKS
MINNEAPOLIS    PTCLDY    71  55  56 S3        30.03R
INTNL FALLS    CLEAR     50  46  86 CALM      30.03R
DULUTH         CLEAR     62  51  67 CALM      30.03R
RED WING       CLEAR     63  59  88 CALM      30.03R
REDWOOD FALLS  PTCLDY    69  56  62 S6        30.01R
MANKATO        CLEAR     70  55  60 SE6       30.03S
WORTHINGTON    CLEAR     66  48  52 S7        30.05S
FAIRMONT       PTCLDY    66  54  63 S7        30.04S
$$

...SOUTHWEST WISCONSIN...


CITY           SKY/WX    TMP DP  RH WIND       PRES   REMARKS
LA CROSSE      CLEAR     69  61  75 SE7       30.04R
PRAIRIE DU CHI CLEAR     64  60  89 CALM      30.08R
BOSCOBEL       CLEAR     61  59  93 CALM      30.08R FOG
LONE ROCK      CLEAR     63  59  87 E3        30.09R
PLATTEVILLE    CLEAR     67  59  76 S7        30.11R
FORT MC COY    CLEAR     59  58  95 CALM      30.07S
VIROQUA        FAIR      67  58  73 S7        30.08R
WIS DELLS      CLEAR     62  57  82 S5        30.09R
$$

...ELSEWHERE IN WISCONSIN...


CITY           SKY/WX    TMP DP  RH WIND       PRES   REMARKS
MILWAUKEE      PTCLDY    62  56  80 S3        30.10R
MADISON        CLEAR     65  58  78 S3        30.09R
GREEN BAY      CLOUDY    66  54  65 NW9       30.06R
EAU CLAIRE     CLEAR     67  54  63 SE5       30.04R
BLACK RVR FLS  FAIR      62  61  98 CALM      30.06R
MEDFORD        PTCLDY    58  55  88 S5        30.06F
WAUSAU         MOCLDY    58  56  93 E5        30.05S
WIS RAPIDS     MOCLDY    60  56  86 SE3       30.08F
MARSHFIELD     PTCLDY    58  55  90 S5        30.07R
RICE LAKE      CLEAR     64  55  72 SE3       30.06R
$$

...NORTHEAST IOWA...


CITY           SKY/WX    TMP DP  RH WIND       PRES   REMARKS
DECORAH        PTCLDY    68  59  73 S3        30.07S
MASON CITY     CLEAR     67  57  70 SW7       30.08R
CHARLES CITY   CLEAR     68  59  73 S7        30.08R
OELWEIN        CLEAR     66  59  77 S8        30.10R
$$

...ELSEWHERE IN IOWA...


CITY           SKY/WX    TMP DP  RH WIND       PRES   REMARKS
DES MOINES     PTCLDY    70  59  68 S7        30.08R
IOWA CITY      CLEAR     65  59  81 CALM      30.12R
FORT DODGE     PTCLDY    66  55  68 CALM      30.07S
$$

...NORTHERN ILLINOIS...


CITY           SKY/WX    TMP DP  RH WIND       PRES   REMARKS
CHICAGO-OHARE  CLEAR     62  54  74 SE5       30.12R
CHICAGO-MIDWAY CLEAR     65  55  70 SE7       30.12R
MOLINE         CLEAR     62  57  83 CALM      30.12R
ROCKFORD       PTCLDY    62  57  83 S3        30.14R
PEORIA         CLEAR     66  58  75 CALM      30.13R
$$

NOTE: "FAIR" INDICATES FEW OR NO CLOUDS BELOW 12,000 FEET WITH NO
SIGNIFICANT WEATHER AND/OR OBSTRUCTIONS TO VISIBILITY. WIND
SPEEDS ARE IN MILES-PER-HOUR.



USA.gov is the U.S. government's official web portal to all federal, state and local government web resources and services.